DeKalb, IL

1:04 AM CDT on June 24, 2017 (GMT -0500)
De Kalb Taylor Municipal

Weather History for KDKB - March, 2013

Change the Weather History Date:

Saturday, March 23, 2013

  Actual Average (KARR) Record (KARR)
Temperature  
Mean Temperature 30 °F -  
Max Temperature 38 °F 48 °F 69 °F (2012)
Min Temperature 23 °F 29 °F 18 °F (1999)
Degree Days  
Heating Degree Days 34    
Moisture  
Dew Point 21 °F    
Average Humidity 68    
Maximum Humidity 85    
Minimum Humidity 48    
Precipitation  
Precipitation 0.00 in - - ()
Sea Level Pressure  
Sea Level Pressure 30.06 in    
Wind  
Wind Speed 5 mph (NNE)    
Max Wind Speed 14 mph    
Max Gust Speed 16 mph    
Visibility 10 miles    
Events      
Averages and records for this station are not official NWS values.
T = Trace of Precipitation, MM = Missing Value Source: NWS Daily Summary

Daily Weather History Graph

Daily Weather History Graph

Search for Another Location

Airport or City:

Trip Planner

Search our weather history database for the weather conditions in past years. The results will help you decide how hot, cold, wet, or windy it might be!

Date:

Astronomy

Mar. 23, 2013 Rise Set
Actual Time 6:52 AM CDT 7:10 PM CDT
Civil Twilight 6:24 AM CDT 7:38 PM CDT
Nautical Twilight 5:51 AM CDT 8:11 PM CDT
Astronomical Twilight 5:18 AM CDT 8:45 PM CDT
Moon 3:34 PM CDT (3/23) 4:32 AM CDT (3/23)
Length of Visible Light 13h 13m
Length of Day
12h 18m
Waxing Gibbous, 85% of the Moon is Illuminated
Mar 23
Waxing Gibbous
Mar 27
Full
Apr 2
Last Quarter
Apr 10
New
Apr 18
First Quarter

Hourly Weather History & Observations

Time (CDT) Temp. Windchill Dew Point Humidity Pressure Visibility Wind Dir Wind Speed Gust Speed Precip Events Conditions
12:15 AM 26.6 °F 21.2 °F 20.7 °F 78% 30.05 in 10.0 mi NE 4.6 mph - N/A   Clear
12:35 AM 25.9 °F 20.3 °F 19.9 °F 78% 30.05 in 10.0 mi NE 4.6 mph - N/A   Scattered Clouds
12:55 AM 26.6 °F 22.6 °F 20.3 °F 77% 30.05 in 10.0 mi NE 3.5 mph - N/A   Mostly Cloudy
1:15 AM 27.1 °F 23.2 °F 20.8 °F 77% 30.05 in 10.0 mi NE 3.5 mph - N/A   Overcast
1:35 AM 26.6 °F 22.6 °F 20.3 °F 77% 30.05 in 10.0 mi NE 3.5 mph - N/A   Overcast
1:55 AM 27.0 °F 23.0 °F 19.4 °F 73% 30.05 in 10.0 mi NE 3.5 mph - N/A   Overcast
2:15 AM 27.0 °F - 20.1 °F 75% 30.05 in 10.0 mi Calm Calm - N/A   Overcast
2:35 AM 26.6 °F - 20.7 °F 78% 30.05 in 10.0 mi Calm Calm - N/A   Overcast
2:55 AM 26.6 °F - 19.0 °F 73% 30.05 in 10.0 mi Calm Calm - N/A   Overcast
3:15 AM 26.6 °F - 21.2 °F 80% 30.05 in 10.0 mi Calm Calm - N/A   Overcast
3:35 AM 26.6 °F - 20.3 °F 77% 30.05 in 10.0 mi Calm Calm - N/A   Overcast
3:55 AM 26.2 °F - 21.7 °F 83% 30.05 in 10.0 mi Calm Calm - N/A   Overcast
4:15 AM 25.9 °F 21.7 °F 21.2 °F 82% 30.05 in 10.0 mi North 3.5 mph - N/A   Overcast
4:35 AM 25.7 °F 19.0 °F 19.9 °F 79% 30.04 in 10.0 mi NNE 5.8 mph - N/A   Mostly Cloudy
4:55 AM 25.5 °F 19.9 °F 20.1 °F 80% 30.04 in 10.0 mi North 4.6 mph - N/A   Mostly Cloudy
5:15 AM 25.0 °F - 19.8 °F 81% 30.05 in 10.0 mi Calm Calm - N/A   Scattered Clouds
5:35 AM 24.8 °F - 19.4 °F 80% 30.05 in 10.0 mi Calm Calm - N/A   Clear
5:55 AM 24.1 °F 19.7 °F 19.9 °F 84% 30.06 in 10.0 mi NNE 3.5 mph - N/A   Clear
6:15 AM 24.4 °F - 19.8 °F 82% 30.07 in 10.0 mi Calm Calm - N/A   Clear
6:35 AM 23.9 °F - 19.4 °F 83% 30.07 in 10.0 mi Calm Calm - N/A   Clear
6:55 AM 23.2 °F - 19.0 °F 84% 30.07 in 10.0 mi Calm Calm - N/A   Clear
7:15 AM 23.9 °F - 19.6 °F 84% 30.08 in 10.0 mi Calm Calm - N/A   Clear
7:35 AM 24.4 °F 20.1 °F 20.3 °F 84% 30.09 in 10.0 mi North 3.5 mph - N/A   Clear
7:55 AM 25.5 °F 19.9 °F 20.8 °F 82% 30.08 in 10.0 mi NNE 4.6 mph - N/A   Clear
8:15 AM 26.6 °F 20.0 °F 21.0 °F 79% 30.09 in 10.0 mi NNE 5.8 mph - N/A   Clear
8:35 AM 27.5 °F 23.6 °F 21.4 °F 78% 30.11 in 10.0 mi North 3.5 mph - N/A   Clear
8:55 AM 28.8 °F 25.0 °F 21.6 °F 74% 30.11 in 10.0 mi North 3.5 mph - N/A   Clear
9:15 AM 29.8 °F 23.9 °F 21.6 °F 71% 30.11 in 10.0 mi NNE 5.8 mph - N/A   Clear
9:35 AM 30.2 °F 24.3 °F 20.3 °F 67% 30.12 in 10.0 mi North 5.8 mph - N/A   Clear
9:55 AM 31.1 °F 26.4 °F 18.9 °F 61% 30.11 in 10.0 mi ENE 4.6 mph - N/A   Clear
10:15 AM 31.8 °F 27.3 °F 19.0 °F 59% 30.12 in 10.0 mi NE 4.6 mph - N/A   Clear
10:35 AM 32.4 °F 26.0 °F 19.0 °F 58% 30.11 in 10.0 mi ENE 6.9 mph - N/A   Clear
10:55 AM 32.7 °F 27.3 °F 18.3 °F 55% 30.11 in 10.0 mi North 5.8 mph - N/A   Clear
11:15 AM 33.1 °F 26.9 °F 19.4 °F 57% 30.11 in 10.0 mi NE 6.9 mph - N/A   Clear
11:35 AM 33.8 °F 27.7 °F 18.7 °F 54% 30.11 in 10.0 mi NNE 6.9 mph - N/A   Clear
11:55 AM 35.1 °F 29.3 °F 19.2 °F 53% 30.11 in 10.0 mi NE 6.9 mph - N/A   Clear
12:15 PM 35.2 °F 28.8 °F 17.8 °F 49% 30.10 in 10.0 mi NNE 8.1 mph - N/A   Clear
12:35 PM 35.2 °F 28.8 °F 19.0 °F 52% 30.09 in 10.0 mi NE 8.1 mph - N/A   Clear
12:55 PM 35.6 °F 29.2 °F 17.8 °F 48% 30.09 in 10.0 mi NE 8.1 mph - N/A   Clear
1:15 PM 36.5 °F 29.7 °F 19.4 °F 50% 30.09 in 10.0 mi NNE 9.2 mph - N/A   Clear
1:35 PM 36.5 °F 31.8 °F 18.9 °F 49% 30.09 in 10.0 mi NNE 5.8 mph - N/A   Clear
1:55 PM 36.9 °F 30.7 °F 19.6 °F 50% 30.07 in 10.0 mi NNE 8.1 mph - N/A   Clear
2:15 PM 37.4 °F 31.4 °F 19.8 °F 49% 30.07 in 10.0 mi North 8.1 mph - N/A   Clear
2:35 PM 37.8 °F 31.8 °F 21.0 °F 51% 30.07 in 10.0 mi North 8.1 mph - N/A   Clear
2:55 PM 36.9 °F 31.4 °F 20.1 °F 51% 30.07 in 10.0 mi North 6.9 mph - N/A   Clear
3:15 PM 37.2 °F 31.9 °F 20.7 °F 51% 30.06 in 10.0 mi NNE 6.9 mph - N/A   Clear
3:35 PM 38.1 °F 31.2 °F 21.7 °F 52% 30.06 in 10.0 mi North 10.4 mph - N/A   Clear
3:55 PM 37.6 °F 35.1 °F 20.3 °F 50% 30.06 in 10.0 mi NNW 3.5 mph - N/A   Clear
4:15 PM 37.8 °F 32.5 °F 22.1 °F 53% 30.04 in 10.0 mi North 6.9 mph - N/A   Clear
4:35 PM 37.9 °F 33.5 °F 22.3 °F 53% 30.04 in 10.0 mi NE 5.8 mph 9.2 mph N/A   Clear
4:55 PM 38.3 °F 33.2 °F 21.6 °F 51% 30.03 in 10.0 mi NNE 6.9 mph - N/A   Clear
5:15 PM 37.8 °F 31.3 °F 21.4 °F 52% 30.02 in 10.0 mi NNE 9.2 mph - N/A   Clear
5:35 PM 37.6 °F 31.0 °F 20.3 °F 50% 30.01 in 10.0 mi NE 9.2 mph - N/A   Clear
5:55 PM 36.7 °F 31.2 °F 21.7 °F 55% 30.01 in 10.0 mi NNE 6.9 mph - N/A   Clear
6:15 PM 35.2 °F 27.6 °F 22.5 °F 60% 30.01 in 10.0 mi NNE 10.4 mph - N/A   Clear
6:35 PM 35.1 °F 26.4 °F 22.5 °F 60% 30.01 in 10.0 mi NE 12.7 mph - N/A   Clear
6:55 PM 33.8 °F 25.3 °F 21.6 °F 61% 30.01 in 10.0 mi ENE 11.5 mph - N/A   Clear
7:15 PM 32.9 °F 24.1 °F 21.2 °F 62% 30.01 in 10.0 mi ENE 11.5 mph 16.1 mph N/A   Clear
7:35 PM 32.2 °F 23.8 °F 21.7 °F 65% 30.02 in 10.0 mi ENE 10.4 mph - N/A   Clear
7:55 PM 32.0 °F 22.1 °F 21.6 °F 65% 30.02 in 10.0 mi ENE 13.8 mph - N/A   Clear
8:15 PM 31.6 °F 22.6 °F 21.7 °F 67% 30.02 in 10.0 mi ENE 11.5 mph - N/A   Clear
8:35 PM 31.1 °F 23.1 °F 23.2 °F 72% 30.03 in 10.0 mi ENE 9.2 mph - N/A   Clear
8:55 PM 30.9 °F 22.2 °F 23.9 °F 75% 30.03 in 10.0 mi ENE 10.4 mph - N/A   Clear
9:15 PM 30.4 °F 21.0 °F 23.9 °F 77% 30.02 in 10.0 mi ENE 11.5 mph - N/A   Clear
9:35 PM 30.2 °F 20.8 °F 23.9 °F 77% 30.02 in 10.0 mi ENE 11.5 mph - N/A   Clear
9:55 PM 30.2 °F 22.6 °F 24.6 °F 80% 30.03 in 10.0 mi ENE 8.1 mph - N/A   Clear
10:15 PM 30.2 °F 20.8 °F 25.3 °F 82% 30.02 in 10.0 mi NE 11.5 mph - N/A   Clear
10:35 PM 30.2 °F 20.8 °F 25.7 °F 83% 30.01 in 10.0 mi NE 11.5 mph - N/A   Clear
10:55 PM 29.8 °F 22.2 °F 25.7 °F 85% 30.02 in 10.0 mi NE 8.1 mph - N/A   Clear
11:15 PM 30.0 °F 22.4 °F 25.5 °F 83% 30.02 in 10.0 mi NE 8.1 mph - N/A   Scattered Clouds
11:35 PM 30.2 °F 21.9 °F 25.5 °F 83% 30.03 in 10.0 mi NNE 9.2 mph - N/A   Scattered Clouds
11:55 PM 30.2 °F 23.4 °F 25.7 °F 83% 30.03 in 10.0 mi NNE 6.9 mph - N/A   Mostly Cloudy